| time (UTC) | temp F | wind direction | speed MPH | gust MPH | rain 1hr in | rain 24hr in | rain mn in | humidity % | barometer mb |
| 20260504202134 | 49 | 206 | 6.0 | 10.0 | 0.00 | 0.00 | 0.00 | 50 | 1016.7 |
| 20260504201631 | 49 | 219 | 7.0 | 11.0 | 0.00 | 0.00 | 0.00 | 52 | 1016.4 |
| 20260504201129 | 49 | 234 | 6.0 | 11.0 | 0.00 | 0.00 | 0.00 | 51 | 1016.6 |
| 20260504200626 | 50 | 208 | 7.0 | 10.0 | 0.00 | 0.00 | 0.00 | 51 | 1016.7 |
| 20260504200122 | 49 | 242 | 4.0 | 9.0 | 0.00 | 0.00 | 0.00 | 49 | 1016.4 |
| 20260504195618 | 48 | 145 | 5.0 | 7.0 | 0.00 | 0.00 | 0.00 | 49 | 1016.4 |
| 20260504195114 | 47 | 187 | 8.0 | 11.0 | 0.00 | 0.00 | 0.00 | 53 | 1016.7 |
| 20260504194611 | 46 | 190 | 6.0 | 9.0 | 0.00 | 0.00 | 0.00 | 54 | 1016.6 |
| 20260504194107 | 46 | 175 | 6.0 | 14.0 | 0.00 | 0.00 | 0.00 | 57 | 1016.6 |
| 20260504193603 | 46 | 184 | 10.0 | 15.0 | 0.00 | 0.00 | 0.00 | 57 | 1016.8 |
| 20260504193102 | 47 | 185 | 8.0 | 14.0 | 0.00 | 0.00 | 0.00 | 53 | 1016.8 |
| 20260504192600 | 48 | 185 | 10.0 | 14.0 | 0.00 | 0.00 | 0.00 | 55 | 1016.6 |
| 20260504192058 | 49 | 185 | 9.0 | 13.0 | 0.00 | 0.00 | 0.00 | 52 | 1016.8 |
| 20260504191556 | 48 | 204 | 9.0 | 13.0 | 0.00 | 0.00 | 0.00 | 49 | 1016.7 |
| 20260504191051 | 48 | 220 | 3.0 | 8.0 | 0.00 | 0.00 | 0.00 | 49 | 1016.4 |
| 20260504190548 | 47 | 267 | 4.0 | 7.0 | 0.00 | 0.00 | 0.00 | 49 | 1016.7 |
| 20260504190044 | 47 | 207 | 4.0 | 6.0 | 0.00 | 0.00 | 0.00 | 48 | 1016.7 |
| 20260504185541 | 47 | 221 | 5.0 | 10.0 | 0.00 | 0.00 | 0.00 | 50 | 1016.8 |
| 20260504185038 | 48 | 285 | 6.0 | 9.0 | 0.00 | 0.00 | 0.00 | 49 | 1016.9 |
| 20260504184533 | 48 | 230 | 5.0 | 7.0 | 0.00 | 0.00 | 0.00 | 49 | 1016.8 |
| 20260504184029 | 48 | 225 | 2.0 | 6.0 | 0.00 | 0.00 | 0.00 | 50 | 1016.8 |
| 20260504183526 | 49 | 266 | 7.0 | 8.0 | 0.00 | 0.00 | 0.00 | 48 | 1016.9 |
| 20260504183024 | 50 | 265 | 4.0 | 6.0 | 0.00 | 0.00 | 0.00 | 47 | 1016.8 |
| 20260504182521 | 50 | 262 | 3.0 | 7.0 | 0.00 | 0.00 | 0.00 | 47 | 1017.1 |
| 20260504182018 | 50 | 187 | 3.0 | 6.0 | 0.00 | 0.00 | 0.00 | 48 | 1017.2 |
| 20260504181515 | 49 | 293 | 4.0 | 8.0 | 0.00 | 0.00 | 0.00 | 50 | 1017.2 |
| 20260504181014 | 48 | 260 | 3.0 | 7.0 | 0.00 | 0.00 | 0.00 | 53 | 1017.1 |
| 20260504180512 | 47 | 257 | 4.0 | 9.0 | 0.00 | 0.00 | 0.00 | 53 | 1016.9 |
| 20260504180010 | 48 | 236 | 5.0 | 8.0 | 0.00 | 0.00 | 0.00 | 52 | 1017.1 |
| 20260504175507 | 48 | 150 | 2.0 | 4.0 | 0.00 | 0.00 | 0.00 | 52 | 1017.2 |
| 20260504175004 | 48 | 115 | 3.0 | 7.0 | 0.00 | 0.00 | 0.00 | 52 | 1016.9 |
| 20260504174502 | 49 | 236 | 3.0 | 13.0 | 0.00 | 0.00 | 0.00 | 52 | 1017.2 |
| 20260504173959 | 49 | 261 | 5.0 | 10.0 | 0.00 | 0.00 | 0.00 | 51 | 1017.1 |
| 20260504173455 | 50 | 59 | 2.0 | 9.0 | 0.00 | 0.00 | 0.00 | 49 | 1017.3 |
| 20260504172953 | 51 | 216 | 4.0 | 6.0 | 0.00 | 0.00 | 0.00 | 46 | 1017.1 |
| 20260504172448 | 50 | 221 | 2.0 | 4.0 | 0.00 | 0.00 | 0.00 | 46 | 1017.2 |
| 20260504171945 | 51 | 171 | 5.0 | 7.0 | 0.00 | 0.00 | 0.00 | 45 | 1017.2 |
| 20260504171443 | 52 | 228 | 3.0 | 8.0 | 0.00 | 0.00 | 0.00 | 44 | 1017.3 |
| 20260504170939 | 52 | 192 | 2.0 | 4.0 | 0.00 | 0.00 | 0.00 | 47 | 1017.3 |
| 20260504170436 | 51 | 111 | 1.0 | 3.0 | 0.00 | 0.00 | 0.00 | 47 | 1017.2 |
| 20260504160355 | 45 | 203 | 6.0 | 7.0 | 0.00 | 0.00 | 0.00 | 55 | 1017.1 |
| 20260504150820 | 47 | 206 | 5.0 | 9.0 | 0.00 | 0.00 | 0.00 | 52 | 1017.9 |
| 20260504150316 | 47 | 180 | 5.0 | 8.0 | 0.00 | 0.00 | 0.00 | 52 | 1018.0 |
| 20260504141246 | 42 | 191 | 4.0 | 7.0 | 0.00 | 0.00 | 0.00 | 60 | 1017.9 |
| 20260504140742 | 42 | 193 | 4.0 | 6.0 | 0.00 | 0.00 | 0.00 | 60 | 1017.6 |
| 20260504140238 | 42 | 210 | 4.0 | 6.0 | 0.00 | 0.00 | 0.00 | 60 | 1017.6 |
| 20260504130707 | 40 | 204 | 2.0 | 3.0 | 0.00 | 0.00 | 0.00 | 69 | 1017.7 |
| 20260504130203 | 40 | 209 | 3.0 | 3.0 | 0.00 | 0.00 | 0.00 | 69 | 1017.5 |
| 20260504120127 | 39 | 221 | 6.0 | 8.0 | 0.00 | 0.00 | 0.00 | 71 | 1017.3 |
| 20260504110554 | 39 | 212 | 6.0 | 8.0 | 0.00 | 0.00 | 0.00 | 73 | 1017.6 |
| 20260504100516 | 41 | 208 | 8.0 | 11.0 | 0.00 | 0.00 | 0.00 | 67 | 1017.6 |
| 20260504081909 | 42 | 192 | 6.0 | 8.0 | 0.00 | 0.00 | 0.00 | 57 | 1017.6 |
| 20260504081406 | 43 | 185 | 4.0 | 10.0 | 0.00 | 0.00 | 0.00 | 57 | 1017.7 |
| 20260504080902 | 42 | 154 | 6.0 | 9.0 | 0.00 | 0.00 | 0.00 | 57 | 1018.0 |
| 20260504080359 | 42 | 165 | 4.0 | 9.0 | 0.00 | 0.00 | 0.00 | 57 | 1018.1 |
| 20260504070326 | 43 | 196 | 9.0 | 11.0 | 0.00 | 0.00 | 0.00 | 45 | 1018.0 |
| 20260504060247 | 47 | 204 | 2.0 | 2.0 | 0.00 | 0.00 | 0.00 | 33 | 1018.4 |
| 20260504050715 | 46 | 153 | 2.0 | 2.0 | 0.00 | 0.00 | 0.00 | 36 | 1018.8 |
| 20260504050212 | 46 | 143 | 1.0 | 3.0 | 0.00 | 0.00 | 0.00 | 36 | 1018.9 |
| 20260504045709 | 46 | 171 | 2.0 | 3.0 | 0.00 | 0.00 | 0.00 | 35 | 1018.8 |
| 20260504045209 | 46 | 162 | 2.0 | 2.0 | 0.00 | 0.00 | 0.00 | 35 | 1018.9 |
| 20260504044708 | 47 | 169 | 2.0 | 3.0 | 0.00 | 0.00 | 0.00 | 35 | 1018.8 |
| 20260504044204 | 47 | 148 | 2.0 | 3.0 | 0.00 | 0.00 | 0.00 | 34 | 1018.8 |
| 20260504043701 | 47 | 122 | 1.0 | 2.0 | 0.00 | 0.00 | 0.00 | 34 | 1019.0 |
| 20260504043158 | 47 | 111 | 1.0 | 2.0 | 0.00 | 0.00 | 0.00 | 34 | 1019.0 |
| 20260504042655 | 48 | 97 | 0.0 | 2.0 | 0.00 | 0.00 | 0.00 | 33 | 1019.0 |
| 20260504042152 | 47 | 140 | 1.0 | 1.0 | 0.00 | 0.00 | 0.00 | 33 | 1018.9 |
| 20260504041648 | 47 | 192 | 1.0 | 2.0 | 0.00 | 0.00 | 0.00 | 33 | 1018.9 |
| 20260504041144 | 47 | 169 | 1.0 | 2.0 | 0.00 | 0.00 | 0.00 | 33 | 1019.0 |
| 20260504040641 | 47 | 153 | 1.0 | 1.0 | 0.00 | 0.00 | 0.00 | 33 | 1019.2 |
| 20260504040138 | 47 | 161 | 1.0 | 1.0 | 0.00 | 0.00 | 0.00 | 34 | 1019.3 |
| 20260504035635 | 47 | 159 | 1.0 | 1.0 | 0.00 | 0.00 | 0.00 | 34 | 1019.2 |
| 20260504035131 | 47 | 154 | 1.0 | 2.0 | 0.00 | 0.00 | 0.00 | 34 | 1019.0 |
| 20260504034629 | 47 | 146 | 1.0 | 2.0 | 0.00 | 0.00 | 0.00 | 34 | 1019.0 |
| 20260504034126 | 47 | 148 | 1.0 | 2.0 | 0.00 | 0.00 | 0.00 | 34 | 1019.3 |
| 20260504033624 | 47 | 119 | 1.0 | 2.0 | 0.00 | 0.00 | 0.00 | 34 | 1019.2 |
| 20260504033121 | 47 | 156 | 2.0 | 2.0 | 0.00 | 0.00 | 0.00 | 35 | 1019.3 |
| 20260504032618 | 47 | 166 | 2.0 | 2.0 | 0.00 | 0.00 | 0.00 | 35 | 1019.2 |
| 20260504032115 | 47 | 185 | 2.0 | 2.0 | 0.00 | 0.00 | 0.00 | 34 | 1019.2 |
| 20260504031612 | 47 | 172 | 2.0 | 2.0 | 0.00 | 0.00 | 0.00 | 34 | 1019.2 |
| 20260504031108 | 47 | 161 | 1.0 | 2.0 | 0.00 | 0.00 | 0.00 | 34 | 1019.3 |
| 20260504030605 | 47 | 159 | 1.0 | 1.0 | 0.00 | 0.00 | 0.00 | 35 | 1019.2 |
| 20260504030101 | 47 | 116 | 0.0 | 1.0 | 0.00 | 0.00 | 0.00 | 34 | 1019.3 |
| 20260504025558 | 48 | 121 | 0.0 | 1.0 | 0.00 | 0.00 | 0.00 | 33 | 1019.0 |
| 20260504025055 | 49 | 153 | 0.0 | 0.0 | 0.00 | 0.00 | 0.00 | 32 | 1019.2 |
| 20260504024552 | 49 | 219 | 2.0 | 7.0 | 0.00 | 0.00 | 0.00 | 32 | 1019.4 |
| 20260504024049 | 49 | 92 | 0.0 | 0.0 | 0.00 | 0.00 | 0.00 | 33 | 1019.3 |
| 20260504023546 | 49 | 10 | 2.0 | 6.0 | 0.00 | 0.00 | 0.00 | 32 | 1019.3 |
| 20260504023042 | 49 | 337 | 1.0 | 2.0 | 0.00 | 0.00 | 0.00 | 33 | 1019.6 |
| 20260504022537 | 49 | 189 | 2.0 | 3.0 | 0.00 | 0.00 | 0.00 | 32 | 1019.3 |
| 20260504022034 | 50 | 141 | 1.0 | 2.0 | 0.00 | 0.00 | 0.00 | 32 | 1019.7 |
| 20260504021532 | 50 | 157 | 0.0 | 2.0 | 0.00 | 0.00 | 0.00 | 32 | 1019.4 |
| 20260504021028 | 50 | 46 | 1.0 | 9.0 | 0.00 | 0.00 | 0.00 | 33 | 1019.6 |
| 20260504020525 | 50 | 181 | 4.0 | 6.0 | 0.00 | 0.00 | 0.00 | 32 | 1019.3 |
| 20260504020022 | 50 | 112 | 0.0 | 2.0 | 0.00 | 0.00 | 0.00 | 32 | 1019.4 |
| 20260504015518 | 50 | 129 | 4.0 | 6.0 | 0.00 | 0.00 | 0.00 | 32 | 1019.2 |
| 20260504015014 | 51 | 105 | 3.0 | 6.0 | 0.00 | 0.00 | 0.00 | 32 | 1019.6 |
| 20260504014510 | 51 | 185 | 4.0 | 6.0 | 0.00 | 0.00 | 0.00 | 30 | 1019.2 |
| 20260504014008 | 51 | 174 | 5.0 | 9.0 | 0.00 | 0.00 | 0.00 | 30 | 1019.2 |
| 20260504013506 | 51 | 237 | 8.0 | 10.0 | 0.00 | 0.00 | 0.00 | 29 | 1019.2 |
| 20260504013001 | 51 | 130 | 1.0 | 1.0 | 0.00 | 0.00 | 0.00 | 27 | 1019.2 |
| 20260504012500 | 51 | 234 | 2.0 | 3.0 | 0.00 | 0.00 | 0.00 | 29 | 1019.4 |
| 20260504011957 | 51 | 110 | 1.0 | 2.0 | 0.00 | 0.00 | 0.00 | 31 | 1019.2 |
| 20260504011454 | 51 | 24 | 0.0 | 2.0 | 0.00 | 0.00 | 0.00 | 30 | 1019.0 |
| 20260504010949 | 52 | 68 | 0.0 | 1.0 | 0.00 | 0.00 | 0.00 | 31 | 1019.2 |
| 20260504010446 | 52 | 29 | 2.0 | 2.0 | 0.00 | 0.00 | 0.00 | 29 | 1018.9 |
| 20260504005942 | 52 | 16 | 1.0 | 2.0 | 0.00 | 0.00 | 0.00 | 29 | 1019.3 |
| 20260504005439 | 52 | 355 | 3.0 | 3.0 | 0.00 | 0.00 | 0.00 | 28 | 1019.6 |
| 20260504004936 | 53 | 325 | 1.0 | 3.0 | 0.00 | 0.00 | 0.00 | 28 | 1019.4 |
| 20260504004434 | 53 | 93 | 0.0 | 1.0 | 0.00 | 0.00 | 0.00 | 28 | 1019.3 |
| 20260504003931 | 53 | 46 | 1.0 | 3.0 | 0.00 | 0.00 | 0.00 | 28 | 1019.4 |
| 20260504003427 | 54 | 48 | 2.0 | 3.0 | 0.00 | 0.00 | 0.00 | 26 | 1019.6 |
| 20260504002924 | 54 | 89 | 0.0 | 2.0 | 0.00 | 0.00 | 0.00 | 25 | 1019.4 |
| 20260504002420 | 54 | 70 | 0.0 | 1.0 | 0.00 | 0.00 | 0.00 | 26 | 1019.4 |
| 20260504001918 | 54 | 175 | 0.0 | 2.0 | 0.00 | 0.00 | 0.00 | 27 | 1019.6 |
| 20260504001416 | 54 | 71 | 1.0 | 2.0 | 0.00 | 0.00 | 0.00 | 27 | 1019.4 |
| 20260504000912 | 54 | 30 | 1.0 | 3.0 | 0.00 | 0.00 | 0.00 | 27 | 1019.7 |
| 20260504000409 | 54 | 200 | 3.0 | 6.0 | 0.00 | 0.00 | 0.00 | 26 | 1019.7 |
| 20260503235906 | 54 | 34 | 1.0 | 4.0 | 0.00 | 0.00 | 0.00 | 26 | 1019.4 |
| 20260503235404 | 54 | 143 | 2.0 | 3.0 | 0.00 | 0.00 | 0.00 | 26 | 1019.7 |
| 20260503234901 | 54 | 234 | 4.0 | 7.0 | 0.00 | 0.00 | 0.00 | 27 | 1019.8 |
| 20260503234359 | 55 | 200 | 6.0 | 14.0 | 0.00 | 0.00 | 0.00 | 26 | 1019.8 |
| 20260503233856 | 55 | 198 | 4.0 | 10.0 | 0.00 | 0.00 | 0.00 | 26 | 1019.7 |
| 20260503233353 | 54 | 196 | 4.0 | 7.0 | 0.00 | 0.00 | 0.00 | 28 | 1019.8 |
| 20260503232849 | 54 | 149 | 1.0 | 4.0 | 0.00 | 0.00 | 0.00 | 27 | 1019.8 |
| 20260503232347 | 54 | 190 | 4.0 | 4.0 | 0.00 | 0.00 | 0.00 | 27 | 1019.8 |
| 20260503231844 | 54 | 172 | 4.0 | 6.0 | 0.00 | 0.00 | 0.00 | 26 | 1019.8 |
| 20260503231341 | 54 | 179 | 8.0 | 10.0 | 0.00 | 0.00 | 0.00 | 25 | 1019.7 |
| 20260503230837 | 54 | 34 | 3.0 | 11.0 | 0.00 | 0.00 | 0.00 | 25 | 1019.7 |
| 20260503230334 | 55 | 4 | 7.0 | 9.0 | 0.00 | 0.00 | 0.00 | 24 | 1019.7 |
| 20260503225832 | 55 | 27 | 2.0 | 3.0 | 0.00 | 0.00 | 0.00 | 24 | 1019.9 |
| 20260503225328 | 55 | 207 | 2.0 | 3.0 | 0.00 | 0.00 | 0.00 | 23 | 1019.9 |
| 20260503224824 | 55 | 119 | 1.0 | 2.0 | 0.00 | 0.00 | 0.00 | 23 | 1019.8 |
| 20260503224321 | 55 | 93 | 0.0 | 3.0 | 0.00 | 0.00 | 0.00 | 24 | 1020.1 |
| 20260503223819 | 55 | 309 | 3.0 | 7.0 | 0.00 | 0.00 | 0.00 | 24 | 1019.8 |
| 20260503223317 | 55 | 336 | 4.0 | 4.0 | 0.00 | 0.00 | 0.00 | 24 | 1019.8 |
| 20260503222812 | 55 | 326 | 4.0 | 7.0 | 0.00 | 0.00 | 0.00 | 24 | 1019.8 |
| 20260503222311 | 55 | 47 | 1.0 | 3.0 | 0.00 | 0.00 | 0.00 | 24 | 1020.1 |
| 20260503221809 | 56 | 158 | 2.0 | 8.0 | 0.00 | 0.00 | 0.00 | 24 | 1020.1 |
| 20260503221307 | 56 | 262 | 6.0 | 7.0 | 0.00 | 0.00 | 0.00 | 23 | 1019.8 |
| 20260503220802 | 57 | 206 | 1.0 | 3.0 | 0.00 | 0.00 | 0.00 | 23 | 1020.5 |
| 20260503220300 | 57 | 288 | 3.0 | 4.0 | 0.00 | 0.00 | 0.00 | 23 | 1020.3 |
| 20260503215756 | 57 | 207 | 0.0 | 2.0 | 0.00 | 0.00 | 0.00 | 23 | 1020.3 |
| 20260503215253 | 57 | 244 | 2.0 | 2.0 | 0.00 | 0.00 | 0.00 | 21 | 1020.5 |
| 20260503214751 | 56 | 18 | 1.0 | 6.0 | 0.00 | 0.00 | 0.00 | 22 | 1020.9 |
| 20260503214248 | 56 | 258 | 2.0 | 4.0 | 0.00 | 0.00 | 0.00 | 23 | 1020.7 |
| 20260503213746 | 56 | 199 | 2.0 | 4.0 | 0.00 | 0.00 | 0.00 | 23 | 1020.7 |
| 20260503213243 | 57 | 256 | 3.0 | 4.0 | 0.00 | 0.00 | 0.00 | 22 | 1020.9 |
| 20260503212740 | 57 | 1 | 2.0 | 6.0 | 0.00 | 0.00 | 0.00 | 22 | 1020.9 |
| 20260503212238 | 57 | 270 | 5.0 | 7.0 | 0.00 | 0.00 | 0.00 | 21 | 1020.7 |
| 20260503211735 | 57 | 219 | 5.0 | 7.0 | 0.00 | 0.00 | 0.00 | 21 | 1021.1 |
| 20260503211231 | 57 | 90 | 1.0 | 4.0 | 0.00 | 0.00 | 0.00 | 22 | 1021.0 |
| 20260503210726 | 57 | 79 | 0.0 | 2.0 | 0.00 | 0.00 | 0.00 | 22 | 1021.1 |
| 20260503210224 | 56 | 158 | 1.0 | 3.0 | 0.00 | 0.00 | 0.00 | 21 | 1021.2 |
| 20260503205720 | 56 | 20 | 3.0 | 3.0 | 0.00 | 0.00 | 0.00 | 20 | 1021.2 |
| 20260503205216 | 56 | 156 | 4.0 | 6.0 | 0.00 | 0.00 | 0.00 | 21 | 1021.5 |
| 20260503204712 | 57 | 214 | 5.0 | 8.0 | 0.00 | 0.00 | 0.00 | 20 | 1021.5 |
| 20260503204210 | 57 | 259 | 7.0 | 10.0 | 0.00 | 0.00 | 0.00 | 19 | 1021.2 |
| 20260503203707 | 58 | 189 | 5.0 | 9.0 | 0.00 | 0.00 | 0.00 | 19 | 1021.5 |
| 20260503203205 | 58 | 4 | 4.0 | 6.0 | 0.00 | 0.00 | 0.00 | 19 | 1021.8 |
| 20260503202702 | 58 | 85 | 4.0 | 6.0 | 0.00 | 0.00 | 0.00 | 20 | 1021.6 |